#timestamp,LO_Frequency,Hit,StdDev 
1545498015.1,286046997.1,N
1545498016.0,286046997.1,N
1545498035.8,286046997.8,N
1545498055.7,286046995.1,N
1545498075.5,286046998.3,N
1545498095.3,286046998.8,N
1545498115.2,286046995.6,N
1545498135.0,286046997.5,N
1545498135.9,286046997.5,N
1545498155.8,286046997.1,N
1545498175.6,286046998.5,N
1545498195.4,286046996.5,N
1545498215.3,286047000.3,N
1545498235.1,286046995.0,Y
1545498255.8,286046997.0,P
1545498275.7,286046997.0,P
1545498295.5,286046996.6,P
1545498315.4,286046997.0,Y
1545498335.2,286047004.2,P
1545498355.0,286047003.6,N
1545498355.9,286047003.6,N
1545498375.8,286047005.7,N
1545498395.6,286047004.3,N
1545498415.5,286047002.6,N
1545498435.3,286047002.7,N
1545498455.1,286047002.1,N
1545498475.9,286046999.8,N
1545498495.7,286047002.0,N
1545498515.5,286047001.7,N
1545498535.4,286047001.3,N
1545498555.2,286047004.8,N
1545498575.1,286047004.0,N
1545498576.0,286047004.0,N
1545498595.8,286047001.6,N
1545498615.6,286047001.2,N
1545498635.5,286046998.4,N
1545498655.3,286046996.9,N
1545498675.1,286046996.9,N
1545498695.9,286046999.7,N
1545498715.7,286047002.6,N
1545498735.6,286047003.1,N
1545498755.4,286047005.8,N
1545498775.2,286047006.0,N
1545498795.1,286047007.2,N
1545498796.0,286047007.2,N
1545498815.8,286047002.0,N
1545498835.7,286047005.9,N
1545498855.5,286047003.2,N
1545498875.3,286047004.4,N
1545498895.2,286047000.7,N
1545498915.9,286047000.2,N
1545498935.7,286047001.8,N
1545498955.6,286047001.6,N
1545498975.4,286047000.7,N
1545498995.3,286047000.4,N
1545499015.1,286047000.7,N
1545499016.0,286047000.7,N
1545499035.8,286047000.3,N
1545499055.7,286047001.6,N
1545499075.5,286047002.7,N
1545499095.3,286047005.2,N
1545499115.2,286047002.2,N
1545499135.0,286047004.2,N
1545499135.9,286047004.2,N
1545499155.8,286047002.5,N
1545499175.6,286047000.3,N
1545499195.4,286047000.8,N
1545499215.3,286046998.2,N
1545499235.1,286047001.2,N
1545499255.8,286047000.6,N
1545499275.7,286047004.0,N
1545499295.5,286047003.7,N
1545499315.4,286047004.4,N
1545499335.2,286047001.6,N
1545499355.0,286047002.3,N
1545499355.9,286047002.3,N
1545499375.8,286047000.4,N
1545499395.6,286047000.9,N
1545499415.5,286047000.4,N
1545499435.3,286047002.6,N
1545499455.1,286047001.1,N
1545499475.9,286046996.6,N
1545499495.7,286047000.7,N
1545499515.5,286046999.6,N
1545499535.4,286046998.2,N
1545499555.2,286046998.7,N
1545499575.1,286046999.1,N
1545499576.0,286046999.1,N
1545499595.8,286047001.0,N
1545499615.6,286046998.5,N
1545499635.5,286046997.5,N
1545499655.3,286046996.6,N
1545499675.1,286046996.7,N
1545499695.9,286046997.6,N
1545499715.7,286046996.6,N
1545499735.6,286046997.9,N
1545499755.4,286046997.8,N
1545499775.2,286046997.3,N
1545499795.1,286046999.2,N
1545499796.0,286046999.2,N
1545499815.8,286046995.0,N
1545499835.7,286046995.9,N
1545499855.5,286046996.1,N
1545499875.3,286046995.0,N
1545499895.2,286046996.0,N
1545499915.0,286046994.0,N
1545499915.9,286046994.0,N
1545499935.7,286046995.6,N
1545499955.6,286046994.2,N
1545499975.4,286046997.2,N
1545499995.3,286046998.1,N
1545500015.1,286047000.9,N
1545500016.0,286047000.9,N
1545500035.8,286047000.8,N
1545500055.7,286046999.3,N
1545500075.5,286046995.1,N
1545500095.3,286046993.9,N
1545500115.2,286046994.2,N
1545500135.0,286046996.0,N
1545500135.9,286046996.0,N
1545500155.8,286046996.4,N
1545500175.6,286046999.5,N
1545500195.4,286046997.8,N
1545500215.3,286046993.7,Y
1545500235.1,286046998.8,P
1545500255.9,286046999.1,N
1545500275.7,286046998.6,N
1545500295.5,286047001.3,N
1545500315.4,286047007.2,Y
1545500335.2,286047005.6,P
1545500355.0,286047006.0,N
1545500355.9,286047006.0,N
1545500375.8,286047005.5,N
1545500395.6,286047005.4,N
1545500415.5,286047005.5,N
1545500435.3,286047005.3,N
1545500455.1,286047003.3,N
1545500475.9,286047002.2,N
1545500495.7,286047000.3,N
1545500515.5,286047001.2,N
1545500535.4,286047000.7,N
1545500555.2,286046998.2,N
1545500575.1,286046998.6,N
1545500576.0,286046998.6,N
1545500595.8,286046996.9,N
1545500615.6,286046998.7,N
1545500635.5,286047003.9,N
1545500655.3,286047002.6,N
1545500675.2,286046998.5,N
1545500695.9,286047001.1,N
1545500715.7,286047001.1,N
1545500735.6,286047004.0,N
1545500755.4,286047003.7,N
1545500775.2,286047005.8,N
1545500795.1,286047004.0,N
1545500796.0,286047004.0,N
1545500815.8,286047000.3,N
1545500835.7,286047001.6,N
1545500855.5,286047002.2,N
1545500875.3,286047000.1,N
1545500895.2,286047003.2,N
1545500915.0,286047001.8,N
1545500915.9,286047001.8,N
1545500935.8,286047003.3,N
1545500955.6,286047004.4,N
1545500975.4,286047002.6,N
1545500995.3,286047002.1,N
1545501015.1,286047002.0,N
1545501035.8,286047002.5,N
1545501055.7,286047005.4,N
1545501075.5,286047003.9,N
1545501095.3,286047001.4,N
1545501115.2,286047001.3,N
1545501135.0,286047002.2,N
1545501135.9,286047002.2,N
1545501155.8,286047002.6,N
1545501175.6,286046999.7,N
1545501195.4,286047001.7,N
1545501215.3,286047003.6,N
1545501235.1,286047004.0,N
1545501255.9,286047002.0,N
1545501275.7,286047003.9,N
1545501295.5,286047002.4,N
1545501315.4,286047002.4,N
1545501335.2,286047001.3,N
1545501355.0,286047004.4,Y
1545501355.9,286047004.4,P
1545501375.8,286046998.8,N
1545501395.6,286046995.5,N
1545501415.5,286046995.1,N
1545501435.3,286046998.0,N
1545501455.1,286046997.3,N
1545501475.9,286046997.3,N
1545501495.7,286046998.0,N
1545501515.5,286046995.1,N
1545501535.4,286046995.7,N
1545501555.2,286046996.9,N
1545501575.1,286046996.9,N
1545501576.0,286046996.9,N
1545501595.8,286046995.4,N
